Location: Newark
(46.9000°N, 28.3500°E)
Time: 23:15:32
(UTC+00:00)

Explorer 7 - Pass Details

Date: 26 August 2019
Orbit: 485 x 680 km, 50.3° (Epoch: 19 September)

Event Time Altitude Azimuth Distance (km) Brightness Sun altitude
Rises 06:28:11 0° 230° (SW) 3,021 10.3 31.2°
Reaches altitude 10° 06:30:35 10° 226° (SW) 2,101 9.6 31.5°
Maximum altitude 06:35:21 56° 149° (SSE) 785 8.7 32.3°
Drops below altitude 10° 06:39:57 10° 72° (ENE) 2,032 10.5 33.0°
Sets 06:42:16 0° 68° (ENE) 2,914 11.1 33.4°
